TimeEDT,TemperatureF,Dew PointF,Humidity,Sea Level PressureIn,VisibilityMPH,Wind Direction,Wind SpeedMPH,Gust SpeedMPH,PrecipitationIn,Events,Conditions,WindDirDegrees,DateUTC
12:15 AM,62.6,62.6,100,29.96,7.0,Calm,Calm,-,N/A,,Partly Cloudy,0,2013-09-21 04:15:00
12:35 AM,62.6,62.6,100,29.96,8.0,Calm,Calm,-,N/A,,Scattered Clouds,0,2013-09-21 04:35:00
12:55 AM,62.6,62.6,100,29.95,6.0,Calm,Calm,-,N/A,,Clear,0,2013-09-21 04:55:00
1:15 AM,62.6,62.6,100,29.95,6.0,Calm,Calm,-,N/A,,Clear,0,2013-09-21 05:15:00
1:35 AM,62.6,62.6,100,29.95,6.0,Calm,Calm,-,N/A,,Clear,0,2013-09-21 05:35:00
1:55 AM,62.6,60.8,94,29.95,7.0,ENE,3.5,-,N/A,,Clear,60,2013-09-21 05:55:00
2:15 AM,62.6,62.6,100,29.94,7.0,Calm,Calm,-,N/A,,Clear,0,2013-09-21 06:15:00
2:35 AM,60.8,60.8,100,29.94,6.0,Calm,Calm,-,N/A,,Clear,0,2013-09-21 06:35:00
2:55 AM,60.8,60.8,100,29.93,6.0,Calm,Calm,-,N/A,,Clear,0,2013-09-21 06:55:00
3:15 AM,62.6,62.6,100,29.92,6.0,Calm,Calm,-,N/A,,Clear,0,2013-09-21 07:15:00
3:35 AM,60.8,60.8,100,29.91,6.0,Calm,Calm,-,N/A,,Clear,0,2013-09-21 07:35:00
3:55 AM,62.6,62.6,100,29.90,8.0,Variable,3.5,-,N/A,,Clear,0,2013-09-21 07:55:00
4:15 AM,62.6,60.8,94,29.89,10.0,East,4.6,-,N/A,,Clear,90,2013-09-21 08:15:00
4:35 AM,62.6,60.8,94,29.88,9.0,East,5.8,-,N/A,,Clear,80,2013-09-21 08:35:00
4:55 AM,62.6,60.8,94,29.87,10.0,East,5.8,-,N/A,,Clear,80,2013-09-21 08:55:00
5:15 AM,62.6,60.8,94,29.86,10.0,ENE,6.9,-,N/A,,Clear,70,2013-09-21 09:15:00
5:35 AM,62.6,60.8,94,29.85,10.0,ENE,6.9,-,N/A,,Clear,60,2013-09-21 09:35:00
5:55 AM,62.6,60.8,94,29.85,10.0,ENE,5.8,-,N/A,,Clear,70,2013-09-21 09:55:00
6:15 AM,62.6,60.8,94,29.84,10.0,ENE,4.6,-,N/A,,Clear,60,2013-09-21 10:15:00
6:35 AM,62.6,60.8,94,29.84,10.0,ENE,3.5,-,N/A,,Clear,60,2013-09-21 10:35:00
6:55 AM,62.6,60.8,94,29.84,10.0,Calm,Calm,-,N/A,,Clear,0,2013-09-21 10:55:00
7:15 AM,62.6,60.8,94,29.84,10.0,ENE,3.5,-,N/A,,Clear,60,2013-09-21 11:15:00
7:35 AM,62.6,60.8,94,29.84,10.0,ENE,3.5,-,N/A,,Clear,70,2013-09-21 11:35:00
7:55 AM,62.6,60.8,94,29.84,10.0,Calm,Calm,-,N/A,,Partly Cloudy,0,2013-09-21 11:55:00
8:15 AM,62.6,60.8,94,29.84,10.0,Calm,Calm,-,N/A,,Mostly Cloudy,0,2013-09-21 12:15:00
8:35 AM,64.4,60.8,88,29.84,10.0,Calm,Calm,-,N/A,,Light Drizzle,0,2013-09-21 12:35:00
8:55 AM,64.4,60.8,88,29.84,10.0,Calm,Calm,-,N/A,,Light Drizzle,0,2013-09-21 12:55:00
9:15 AM,64.4,62.6,94,29.83,10.0,ENE,4.6,-,N/A,,Light Drizzle,70,2013-09-21 13:15:00
9:35 AM,64.4,62.6,94,29.83,5.0,Calm,Calm,-,N/A,Rain,Light Rain,0,2013-09-21 13:35:00
9:55 AM,64.4,62.6,94,29.83,7.0,Calm,Calm,-,N/A,Rain,Light Rain,0,2013-09-21 13:55:00
10:15 AM,66.2,64.4,94,29.83,5.0,Calm,Calm,-,N/A,Rain,Rain,0,2013-09-21 14:15:00
10:35 AM,64.4,62.6,94,29.82,5.0,Calm,Calm,-,N/A,Rain,Rain,0,2013-09-21 14:35:00
10:55 AM,64.4,62.6,94,29.81,5.0,East,3.5,-,N/A,Rain,Light Rain,90,2013-09-21 14:55:00
11:15 AM,66.2,62.6,88,29.80,7.0,NE,5.8,-,N/A,Rain,Light Rain,40,2013-09-21 15:15:00
11:35 AM,66.2,62.6,88,29.80,10.0,Calm,Calm,-,N/A,,Light Drizzle,0,2013-09-21 15:35:00
11:55 AM,64.4,64.4,100,29.81,6.0,NW,3.5,-,N/A,Rain,Rain,310,2013-09-21 15:55:00
12:15 PM,64.4,64.4,100,29.82,4.0,NW,4.6,-,N/A,Rain,Rain,310,2013-09-21 16:15:00
12:35 PM,64.4,64.4,100,29.82,4.0,NW,3.5,-,N/A,Rain,Rain,310,2013-09-21 16:35:00
12:55 PM,64.4,64.4,100,29.81,3.0,SSW,4.6,-,N/A,Rain,Heavy Rain,210,2013-09-21 16:55:00
1:15 PM,64.4,64.4,100,29.81,5.0,WSW,5.8,-,N/A,Rain,Rain,240,2013-09-21 17:15:00
1:35 PM,62.6,60.8,94,29.82,4.0,NW,10.4,-,N/A,Rain,Light Rain,310,2013-09-21 17:35:00
1:55 PM,62.6,60.8,94,29.82,4.0,WSW,10.4,-,N/A,Rain,Light Rain,240,2013-09-21 17:55:00
2:15 PM,62.6,60.8,94,29.83,5.0,SSW,6.9,-,N/A,Rain,Rain,210,2013-09-21 18:15:00
2:35 PM,62.6,62.6,100,29.83,4.0,SW,5.8,-,N/A,Rain,Light Rain,230,2013-09-21 18:35:00
2:55 PM,62.6,60.8,94,29.82,3.0,SW,5.8,-,N/A,Rain,Light Rain,220,2013-09-21 18:55:00
3:15 PM,62.6,60.8,94,29.82,6.0,Calm,Calm,-,N/A,Rain,Heavy Rain,0,2013-09-21 19:15:00
3:35 PM,62.6,60.8,94,29.81,4.0,Calm,Calm,-,N/A,Rain,Rain,0,2013-09-21 19:35:00
3:55 PM,62.6,60.8,94,29.81,6.0,Calm,Calm,-,N/A,Rain,Light Rain,0,2013-09-21 19:55:00
4:15 PM,62.6,60.8,94,29.81,7.0,Calm,Calm,-,N/A,Rain,Light Rain,0,2013-09-21 20:15:00
4:35 PM,62.6,60.8,94,29.81,9.0,Calm,Calm,-,N/A,Rain,Light Rain,0,2013-09-21 20:35:00
4:55 PM,60.8,60.8,100,29.79,8.0,Calm,Calm,-,N/A,,Drizzle,0,2013-09-21 20:55:00
5:15 PM,60.8,60.8,100,29.79,10.0,Calm,Calm,-,N/A,,Light Drizzle,0,2013-09-21 21:15:00
5:35 PM,62.6,60.8,94,29.79,10.0,Calm,Calm,-,N/A,,Light Drizzle,0,2013-09-21 21:35:00
5:55 PM,62.6,60.8,94,29.79,10.0,Calm,Calm,-,N/A,,Mostly Cloudy,0,2013-09-21 21:55:00
6:15 PM,62.6,60.8,94,29.80,10.0,West,3.5,-,N/A,,Overcast,280,2013-09-21 22:15:00
6:35 PM,62.6,60.8,94,29.80,10.0,Calm,Calm,-,N/A,,Overcast,0,2013-09-21 22:35:00
6:55 PM,62.6,60.8,94,29.81,10.0,West,3.5,-,N/A,,Overcast,270,2013-09-21 22:55:00
7:15 PM,62.6,60.8,94,29.81,10.0,Calm,Calm,-,N/A,,Overcast,0,2013-09-21 23:15:00
7:35 PM,62.6,60.8,94,29.81,10.0,Calm,Calm,-,N/A,,Overcast,0,2013-09-21 23:35:00
7:55 PM,62.6,60.8,94,29.82,10.0,Calm,Calm,-,N/A,,Overcast,0,2013-09-21 23:55:00
8:15 PM,60.8,60.8,100,29.82,10.0,Calm,Calm,-,N/A,,Overcast,0,2013-09-22 00:15:00
8:35 PM,60.8,60.8,100,29.82,10.0,Calm,Calm,-,N/A,,Overcast,0,2013-09-22 00:35:00
8:55 PM,60.8,59.0,94,29.83,10.0,Calm,Calm,-,N/A,,Overcast,0,2013-09-22 00:55:00
9:15 PM,60.8,59.0,94,29.83,10.0,Calm,Calm,-,N/A,,Overcast,0,2013-09-22 01:15:00
9:35 PM,60.8,60.8,100,29.84,10.0,Calm,Calm,-,N/A,,Overcast,0,2013-09-22 01:35:00
9:55 PM,60.8,60.8,100,29.83,10.0,Calm,Calm,-,N/A,,Overcast,0,2013-09-22 01:55:00
10:15 PM,60.8,60.8,100,29.83,10.0,Calm,Calm,-,N/A,,Mostly Cloudy,0,2013-09-22 02:15:00
10:35 PM,60.8,60.8,100,29.83,10.0,Calm,Calm,-,N/A,,Overcast,0,2013-09-22 02:35:00
10:55 PM,60.8,60.8,100,29.83,10.0,Calm,Calm,-,N/A,,Overcast,0,2013-09-22 02:55:00
11:15 PM,60.8,59.0,94,29.84,9.0,Calm,Calm,-,N/A,,Overcast,0,2013-09-22 03:15:00
11:35 PM,60.8,60.8,100,29.84,7.0,Calm,Calm,-,N/A,,Overcast,0,2013-09-22 03:35:00
11:55 PM,60.8,60.8,100,29.84,10.0,Calm,Calm,-,N/A,,Overcast,0,2013-09-22 03:55:00